Regional Weather Roundup
Issued by NWS Grand Forks, ND

Home | Current Version | Previous Version | Graphics & Text | Print | Product List | Glossary On
Versions: 1 2 3 4 5 6 7 8 9 10 11 12 13 14 15 16 17 18 19 20 21 22 23 24 25 26 27 28 29 30 31 32 33 34 35 36 37 38 39 40 41 42 43 44 45 46 47 48 49 50
000
ASUS43 KFGF 222131
RWRFGF
PRAIRIE TO PINES  WEATHER ROUNDUP
NATIONAL WEATHER SERVICE EASTERN NORTH DAKOTA/GRAND FORKS ND
300 PM CST MON JAN 22 2018

 **SATELLITE DATA USED TO AUGMENT SKY COVER AT AUTOMATED STATIONS**
 *****  WEATHER ACROSS EASTERN NORTH DAKOTA  *****

CITY           SKY/WX    TMP DP  RH WIND       PRES   REMARKS
GRAND FORKS    CLOUDY    26  22  84 N16       30.03S WCI  14
GRAND FRKS AFB CLOUDY    26  21  82 NE14      30.02S WCI  14
GRAND FRKS NWS   N/A     27 N/A N/A N14         N/A  WCI  15
DEVILS LAKE    CLOUDY    21  20  96 NE8       30.03S WCI  11
FARGO          CLOUDY    27  23  85 N15G25    29.97R WCI  15
WAHPETON ARPT  CLOUDY    30  23  74 N14G22    29.94R WCI  20
$$

 ***** WEATHER ACROSS CENTRAL AND WESTERN NORTH DAKOTA  *****

CITY           SKY/WX    TMP DP  RH WIND       PRES   REMARKS
BISMARCK       CLOUDY    24  22  91 N6        30.01R FOG     WCI  17
MINOT          CLOUDY    22  19  89 S8        30.00S FOG     WCI  12
JAMESTOWN      CLOUDY    22  20  92 N16       29.98S WCI   8
MINOT AFB      CLOUDY    20  17  91 S8        29.98F FOG     WCI  10
GARRISON         N/A     18  15  88 S3        29.99F
WILLISTON      FAIR      27  18  69 SW6       29.96F WCI  20
DICKINSON      FAIR      33  21  61 W8        29.93S
HETTINGER      FAIR      38  20  48 NW6       29.95S
$$

 *****  OTHER AIRPORT OBSERVATIONS IN OUR AREA  *****

CITY           SKY/WX    TMP DP  RH WIND       PRES   REMARKS
WALHALLA       FAIR      23  23 100 N9        30.07S WCI  13
GRAFTON AIRPOR CLOUDY    25  21  86 N10       30.07R WCI  15
VALLEY CITY AR LGT RAIN  21  21 100 N15       30.00R WCI   8
CANDO          CLOUDY    23  23 100 CALM      30.05R
CAVALIER APRT    N/A     25  21  86 VRB7      30.06S WCI  17
GWINNER          N/A     25  23  93 N17       29.97R WCI  11
SHEYENNE NWR     N/A     25  24  98 N14       29.95S WCI  13
ROLLA          CLOUDY    21  21 100 CALM      30.01S
 ***** THE ABOVE OBSERVATIONS ARE NON NWS ARE NOT QUALITY
       CONTROLLED AND MAY MIS-REPORT RAIN FOR SNOW...
$$

  *****  WEATHER ACROSS NORTHERN MINNESOTA  *****

CITY           SKY/WX    TMP DP  RH WIND       PRES   REMARKS
FLAG ISLAND    CLOUDY    21  16  79 NE12      30.05R WCI   9
WARROAD        CLOUDY    23  18  80 NE12      30.04S WCI  12
ROSEAU         CLOUDY    25  19  80 NE10      30.04R WCI  15
HALLOCK        CLOUDY    27  19  74 N9        30.05S WCI  17
THF RVR FALLS  CLOUDY    24  20  84 NE10      30.01R WCI  14
BAUDETTE       CLOUDY    22  18  85 N12       30.00S WCI  10
WASKISH        CLOUDY    25  21  86 NE7       29.98S WCI  17
CROOKSTON      FAIR      27  21  80 NE9       30.03R WCI  17
STEPHEN NDAWN    N/A     27  21  80 N12         N/A  WCI  16
GREENBUSH NDAW   N/A     25  19  80 NE12        N/A  WCI  14
$$
  *****  WEATHER ACROSS CENTRAL AND WEST MINNESOTA  *****

CITY           SKY/WX    TMP DP  RH WIND       PRES   REMARKS
FOSSTON        CLOUDY    23  19  86 NE12G17   29.97R WCI  12
BEMIDJI        CLOUDY    24  20  85 N12       29.94R WCI  13
PARK RAPIDS    CLOUDY    27  21  78 NE10G22   29.88R WCI  17
ELBOW LAKE     CLOUDY    28  23  83 NE15      29.89R WCI  16
WADENA         CLOUDY    27  21  80 NE18      29.87R WCI  13
DETROIT LAKES  CLOUDY    28  23  80 NE12      29.92R WCI  18
MOORHEAD       CLOUDY    27  21  80 N18G25    29.97R WCI  13
FERGUS FALLS   CLOUDY    28  23  80 NE12      29.90R WCI  18
MORRIS MN      CLOUDY    28  25  86 N16       29.86R WCI  17
STAPLES        CLOUDY    28  21  74 N12       29.86R WCI  18
$$
  *****  WEATHER ELSEWHERE ACROSS MINNESOTA  *****

CITY           SKY/WX    TMP DP  RH WIND       PRES   REMARKS
DULUTH         CLOUDY    24  21  88 NE16      29.82F WCI  11
INTRNTL FALLS  CLOUDY    21  16  81 NE9       30.00R WCI  11
ELY            CLOUDY    18  16  93 NE9       29.92S WCI   6
CLOQUET        CLOUDY    25  19  80 NE14      29.82F WCI  13
WHEATON        CLOUDY    28  23  80 N15       29.92R WCI  17
BRAINERD       CLOUDY    30  23  75 N17       29.83S WCI  18
HIBBING        CLOUDY    22  18  85 NE13G20   29.89S WCI  10
ALEXANDRIA     CLOUDY    29  23  78 NE16G25   29.83R WCI  17
SAINT CLOUD    CLOUDY    28  23  81 N14G21    29.77R WCI  17
MINNEAPOLIS    HVY SNOW  29  29 100 N21G26    29.67S VSB 1/4 WCI  16
$$

  *****  WEATHER ACROSS SOUTH DAKOTA  *****

CITY           SKY/WX    TMP DP  RH WIND       PRES   REMARKS
SIOUX FALLS    LGT SNOW  27  25  92 N29G38    29.75R BLWGSNOWWCI  11
BROOKINGS      CLOUDY    26  23  88 N22G30    29.79S WCI  12
WATERTOWN      CLOUDY    24  24 100 N22G31    29.83S WCI   9
HURON          CLOUDY    24  22  91 N22G29    29.90S WCI   9
SISSETON         N/A     27  24  89 N23       29.91R WCI  12
ABERDEEN       CLOUDY    24  21  88 N21       29.96R WCI   9
MITCHELL       CLOUDY    25  23  92 N26G37    29.87S WCI   9
PIERRE         CLOUDY    24  23  96 N15       29.95R WCI  11
MOBRIDGE       CLOUDY    25  22  88 N10       29.95R FOG     WCI  15
RAPID CITY     FAIR      41  19  41 N23       29.94R
$$

  *****  SOME WEATHER IN NEARBY STATES *****

CITY           SKY/WX    TMP DP  RH WIND       PRES   REMARKS
GLASGOW MT     FAIR      20  15  81 SW3       29.97S
GREAT FALLS MT FAIR      38  18  44 SW17G24   30.00S
CHEYENNE WY    FAIR      28  11  48 NW23G32   29.97S WCI  14
SCOTTSBLUFF NE FAIR      31  18  58 NW20G25   29.99S WCI  19
OMAHA NE       LGT SNOW  32  31  96 N24G37    29.52R VSB 3/4 WCI  19
DES MOINES IA  LGT RAIN  38  36  92 S10       29.41R
DAVENPORT IA     N/A     51  39  63 W18G24    29.43R
CHICAGO IL     FAIR      54  47  77 S16       29.43F
EAU CLAIRE WI  SNOW      31  30  96 NE12      29.63R VSB 1/4 WCI  22
LA CROSSE WI   FLURRIES  34  32  92 NW10      29.51S
$$

  *****  SOME NATIONAL WEATHER *****

CITY           SKY/WX    TMP DP  RH WIND       PRES   REMARKS
LA GUARDIA NY  CLOUDY    42  37  82 NE12      30.13S
RALEIGH NC     PTSUNNY   62  42  47 SW7       30.08F
ATLANTA GA     CLOUDY    60  59  96 SE6       29.96F
NEW ORLEANS LA PTSUNNY   71  57  61 N9        29.91R
OKLAHOMA CITY  PTSUNNY   48  24  39 NW30G39   29.92R
ALBUQUERQUE NM FAIR      40   9  28 VRB7      30.19F
SALT LAKE CITY PTSUNNY   34  19  54 S10       30.29S
LOS ANGELES CA FAIR      66  29  24 W12       30.19F
BOISE ID       PTSUNNY   44  32  62 W7        30.23F
SEATTLE WA     PTSUNNY   46  39  76 S16       30.26S
$$

*** WEATHER ACROSS MANITOBA...SASKATCHEWAN AND ONTARIO ***
                ***ONTARIO***

CITY           SKY/WX    TMP DP  RH WIND       PRES   REMARKS
GERALDTON      FLURRIES   3  -8  60 NE8G18    30.12S WCI -10
THUNDER BAY    PTSUNNY   18   9  68 N6        30.00F WCI   9
SIOUX LOOKOUT  FLURRIES  10   5  79 NE7       30.07S WCI   0
TORONTO        DRIZZLE   34  32  93 E12G17    29.84F FOG
BIG TROUT LK   CLEAR      0  -8  71 E3        30.32S
PICKLE LAKE    CLOUDY     3  -4  72 E6        30.17R WCI  -8
DRYDEN         FLURRIES  12   9  85 NE10      30.05R WCI  -1
KENORA         CLOUDY    18  12  79 NE9       30.04S WCI   6
$$
                *** MANITOBA***

CITY           SKY/WX    TMP DP  RH WIND       PRES   REMARKS
BRANDON        CLOUDY    23  21  93 S8        30.02F WCI  14
DAUPHIN        CLOUDY    21  19  93 E7        30.03F WCI  13
ISLAND LAKE    CLEAR      1  -6  71 SE3       30.22S
PILOT MOUND      N/A     21  19  93 N2          N/A
THE PAS        FLURRIES   0  -6  78 E8        30.09F WCI -15
THOMPSON       PTCLDY    -4 -11  71 E5        30.28F WCI -15
WINNIPEG       CLOUDY    27  19  74 NE6       30.08F WCI  20
CHURCHILL      FLURRIES -11 -15  84 S5        30.52F WCI -23
GILLAM         PTCLDY    -8 -13  77 NE3       30.39F
$$
                ***SASKATCHEWAN***

CITY           SKY/WX    TMP DP  RH WIND       PRES   REMARKS
ESTEVAN        PTSUNNY   21  19  93 E8        29.94F WCI  12
KINDERSLEY     MOSUNNY   37  21  52 W13G22    29.79R
LLOYDMINSTER   CLOUDY    21  19  93 W8        29.78R FOG     WCI  12
PRINCE ALBERT  FLURRIES  12   9  85 E10       29.87R WCI  -1
REGINA         PTSUNNY   25  19  80 SE12      29.85F WCI  14
YORKTON        CLOUDY    21  21 100 S16G22    29.91F WCI   7
N. BATTLEFORD  CLOUDY    19  18  93 E6        29.80S WCI  11
LA RONGE       FLURRIES N/A N/A N/A NE17        N/A
SASKATOON      MOSUNNY   25  21  86 W10       29.80R WCI  15
SWIFT CURRENT  SUNNY     39  19  45 W18G29    29.81R
$$
NOTE: THESE ARE AUTOMATED STATIONS WITH LIMITED QUALITY CONTROL
      "FAIR" INDICATES FEW OR NO CLOUDS BELOW 12,000 FEET WITH NO
      SIGNIFICANT WEATHER AND/OR OBSTRUCTIONS TO VISIBILITY.
      SKY/WX - SKY CONDITION AND SIGNIFICANT WEATHER.
      TMP - AIR TEMPERATURE.    DP   - DEWPOINT TEMPERATURE.
      RH  - RELATIVE HUMIDITY.  PRES - PRESSURE.
      HX  - HEAT INDEX.         WCI  - WIND CHILL INDEX.
$




USA.gov is the U.S. government's official web portal to all federal, state and local government web resources and services.